QTR50Q LIRF-OTHH

Flight info

Callsign QTR50Q
Flight time 4h 50m
Altitude 35000
Route SOSAK5DXSIPRO5B/25 SIPRO DCT IPKAM DCT AMSOR DCT EKTOL DCT DOGUS DCT ULFIG DCT LATAN DCT OSDES DCT TRL DCT GUDIS DCT KAVOS DCT EVORA DCT LAKTO L560 SERMA L550 KARIK B411 DEESA Y415 TAMRO N318 HAYYA
Aircraft B77W/H-SDE1E2E3FGHIJ2J3J4J5M1RWXY/LB1D1

Departure

Time 2026-02-17 11:11
Airport Rome–Fiumicino Leonardo da Vinci International Airport (LIRF)

Arrival

Time 2026-02-17 16:02
Airport Hamad International Airport (OTHH)
Time Latitude Longitude Altitude Speed Heading
2026-02-17 09:58 41.79713 12.24271 20 ft 0 kts 219°
2026-02-17 10:49 41.79713 12.24272 19 ft 0 kts 219°
2026-02-17 10:57 41.79720 12.24279 19 ft 3 kts 219°
2026-02-17 10:58 41.79735 12.24295 22 ft 3 kts 223°
2026-02-17 10:58 41.79749 12.24314 23 ft 3 kts 238°
2026-02-17 10:58 41.79757 12.24338 24 ft 3 kts 265°
2026-02-17 10:59 41.79743 12.24380 24 ft 2 kts 336°
2026-02-17 10:59 41.79739 12.24382 24 ft 1 kts 340°
2026-02-17 10:59 41.79748 12.24378 23 ft 3 kts 340°
2026-02-17 10:59 41.79755 12.24374 24 ft 0 kts 340°
2026-02-17 11:03 41.79762 12.24371 19 ft 5 kts 340°
2026-02-17 11:04 41.79843 12.24299 19 ft 18 kts 326°
2026-02-17 11:04 41.79954 12.24237 19 ft 13 kts 339°
2026-02-17 11:04 41.80035 12.24261 18 ft 14 kts 59°
2026-02-17 11:04 41.80069 12.24379 18 ft 14 kts 69°
2026-02-17 11:05 41.80103 12.24497 18 ft 14 kts 69°
2026-02-17 11:05 41.80137 12.24616 18 ft 14 kts 69°
2026-02-17 11:05 41.80170 12.24735 19 ft 15 kts 69°
2026-02-17 11:05 41.80201 12.24877 18 ft 17 kts 79°
2026-02-17 11:06 41.80206 12.25033 19 ft 17 kts 85°
2026-02-17 11:06 41.80236 12.25184 18 ft 17 kts 72°
2026-02-17 11:06 41.80275 12.25330 19 ft 17 kts 66°
2026-02-17 11:07 41.80392 12.25745 22 ft 26 kts 69°
2026-02-17 11:07 41.80456 12.25975 20 ft 26 kts 70°
2026-02-17 11:07 41.80519 12.26205 25 ft 26 kts 70°
2026-02-17 11:07 41.80582 12.26435 22 ft 26 kts 70°
2026-02-17 11:08 41.80645 12.26664 20 ft 26 kts 70°
2026-02-17 11:08 41.80708 12.26891 18 ft 20 kts 70°
2026-02-17 11:08 41.80755 12.27064 18 ft 8 kts 70°
2026-02-17 11:08 41.80785 12.27129 18 ft 8 kts 37°
2026-02-17 11:09 41.80841 12.27126 17 ft 9 kts 340°
2026-02-17 11:09 41.80899 12.27098 18 ft 10 kts 340°
2026-02-17 11:09 41.80962 12.27062 18 ft 10 kts 323°
2026-02-17 11:09 41.80971 12.26975 18 ft 10 kts 253°
2026-02-17 11:10 41.80968 12.26964 18 ft 1 kts 250°
2026-02-17 11:10 41.80964 12.26948 17 ft 4 kts 250°
2026-02-17 11:10 41.80929 12.26817 18 ft 39 kts 250°
2026-02-17 11:11 41.80223 12.24309 332 ft 225 kts 251°
2026-02-17 11:11 41.79604 12.22297 1407 ft 255 kts 251°
2026-02-17 11:11 41.78832 12.20188 2169 ft 254 kts 239°
2026-02-17 11:11 41.77497 12.18573 2822 ft 261 kts 221°
2026-02-17 11:12 41.76025 12.17096 2959 ft 273 kts 221°
2026-02-17 11:12 41.74458 12.15629 3096 ft 278 kts 218°
2026-02-17 11:12 41.72824 12.14202 3457 ft 281 kts 218°
2026-02-17 11:12 41.71199 12.12750 3909 ft 281 kts 218°
2026-02-17 11:13 41.69580 12.11279 4324 ft 283 kts 218°
2026-02-17 11:13 41.67941 12.09777 4754 ft 287 kts 219°
2026-02-17 11:13 41.66249 12.08375 5257 ft 287 kts 205°
2026-02-17 11:13 41.64268 12.07903 5533 ft 295 kts 176°
2026-02-17 11:14 41.62321 12.08708 5961 ft 294 kts 143°
2026-02-17 11:14 41.60975 12.10698 6824 ft 289 kts 111°
2026-02-17 11:14 41.60367 12.13228 7623 ft 288 kts 99°
2026-02-17 11:15 41.59399 12.18567 9366 ft 300 kts 99°
2026-02-17 11:15 41.58896 12.21293 10233 ft 304 kts 99°
2026-02-17 11:15 41.58384 12.24034 10870 ft 319 kts 99°
2026-02-17 11:15 41.57901 12.27027 11054 ft 339 kts 90°
2026-02-17 11:16 41.58195 12.30181 11258 ft 351 kts 63°
2026-02-17 11:16 41.59508 12.32945 11642 ft 355 kts 45°
2026-02-17 11:16 41.60873 12.35770 12004 ft 378 kts 65°
2026-02-17 11:16 41.61227 12.39325 12931 ft 397 kts 91°
2026-02-17 11:17 41.60517 12.42924 13871 ft 403 kts 106°
2026-02-17 11:17 41.59684 12.46537 14437 ft 411 kts 99°
2026-02-17 11:17 41.59092 12.50285 15231 ft 415 kts 96°
2026-02-17 11:17 41.58612 12.54118 16128 ft 419 kts 94°
2026-02-17 11:18 41.58174 12.57980 16995 ft 423 kts 93°
2026-02-17 11:18 41.57739 12.61897 17811 ft 429 kts 93°
2026-02-17 11:18 41.57291 12.65869 18515 ft 436 kts 93°
2026-02-17 11:19 41.56341 12.74041 19707 ft 453 kts 92°
2026-02-17 11:19 41.55841 12.78234 20351 ft 460 kts 92°
2026-02-17 11:19 41.55329 12.82469 21081 ft 464 kts 92°
2026-02-17 11:19 41.54807 12.86751 21690 ft 471 kts 92°
2026-02-17 11:20 41.54275 12.91116 22242 ft 479 kts 92°
2026-02-17 11:20 41.53735 12.95541 22805 ft 487 kts 91°
2026-02-17 11:20 41.53184 13.00028 23383 ft 493 kts 91°
2026-02-17 11:20 41.52627 13.04571 23834 ft 499 kts 91°
2026-02-17 11:21 41.52059 13.09155 24349 ft 504 kts 91°
2026-02-17 11:21 41.51483 13.13789 24816 ft 509 kts 92°
2026-02-17 11:21 41.50900 13.18443 25483 ft 508 kts 92°
2026-02-17 11:21 41.50316 13.23108 26000 ft 513 kts 91°
2026-02-17 11:22 41.49734 13.27771 26362 ft 520 kts 91°
2026-02-17 11:22 41.49137 13.32550 26749 ft 526 kts 91°
2026-02-17 11:22 41.48528 13.37379 27212 ft 530 kts 92°
2026-02-17 11:23 41.47289 13.47158 28133 ft 540 kts 91°
2026-02-17 11:23 41.46659 13.52104 28534 ft 544 kts 92°
2026-02-17 11:23 41.46018 13.57098 28988 ft 546 kts 92°
2026-02-17 11:23 41.45373 13.62107 29326 ft 550 kts 92°
2026-02-17 11:24 41.44675 13.67154 29608 ft 557 kts 95°
2026-02-17 11:24 41.43686 13.72182 29950 ft 566 kts 101°
2026-02-17 11:24 41.42409 13.77154 30342 ft 567 kts 103°
2026-02-17 11:24 41.41083 13.82105 30768 ft 567 kts 103°
2026-02-17 11:25 41.39753 13.87043 31284 ft 565 kts 104°
2026-02-17 11:25 41.38437 13.91964 31825 ft 562 kts 104°
2026-02-17 11:25 41.37139 13.96874 32324 ft 561 kts 103°
2026-02-17 11:25 41.35918 14.01543 32694 ft 561 kts 103°
2026-02-17 11:26 41.34637 14.06465 32982 ft 562 kts 103°
2026-02-17 11:26 41.33359 14.11379 33356 ft 562 kts 103°
2026-02-17 11:26 41.32077 14.16288 33739 ft 562 kts 103°
2026-02-17 11:27 41.29496 14.26129 34395 ft 560 kts 104°
2026-02-17 11:27 41.28208 14.31009 34750 ft 560 kts 104°
2026-02-17 11:27 41.26915 14.35909 34697 ft 564 kts 104°
2026-02-17 11:28 41.24320 14.45700 34696 ft 559 kts 104°
2026-02-17 11:28 41.21739 14.55406 34694 ft 555 kts 104°
2026-02-17 11:29 41.19223 14.65024 34713 ft 553 kts 102°
2026-02-17 11:29 41.17508 14.74904 34706 ft 547 kts 94°
2026-02-17 11:30 41.16040 14.84842 34690 ft 549 kts 95°
2026-02-17 11:30 41.14445 14.94773 34719 ft 551 kts 96°
2026-02-17 11:31 41.12041 15.09488 34688 ft 552 kts 96°
2026-02-17 11:31 41.10416 15.19446 34691 ft 552 kts 96°
2026-02-17 11:32 41.08787 15.29391 34707 ft 552 kts 97°
2026-02-17 11:32 41.07157 15.39303 34692 ft 550 kts 97°
2026-02-17 11:33 41.05521 15.49189 34684 ft 548 kts 97°
2026-02-17 11:33 41.03885 15.59030 34673 ft 546 kts 97°
2026-02-17 11:34 41.02186 15.68828 34674 ft 547 kts 101°
2026-02-17 11:35 40.98006 15.82935 34646 ft 549 kts 111°
2026-02-17 11:35 40.94908 15.92170 34651 ft 549 kts 110°
2026-02-17 11:36 40.91933 16.01168 34658 ft 548 kts 110°
2026-02-17 11:36 40.88901 16.10418 34615 ft 547 kts 110°
2026-02-17 11:37 40.85895 16.19577 34615 ft 546 kts 110°
2026-02-17 11:37 40.82866 16.28765 34597 ft 545 kts 111°
2026-02-17 11:38 40.79828 16.37940 34613 ft 545 kts 111°
2026-02-17 11:38 40.77274 16.45629 34587 ft 546 kts 111°
2026-02-17 11:39 40.72696 16.59360 34574 ft 548 kts 111°
2026-02-17 11:39 40.69620 16.68551 34568 ft 548 kts 111°
2026-02-17 11:40 40.66533 16.77740 34571 ft 548 kts 111°
2026-02-17 11:40 40.63445 16.86904 34563 ft 547 kts 111°
2026-02-17 11:41 40.60348 16.96062 34547 ft 546 kts 111°
2026-02-17 11:41 40.57317 17.04999 34550 ft 545 kts 111°
2026-02-17 11:42 40.54225 17.14090 34570 ft 544 kts 112°
2026-02-17 11:43 40.49589 17.27664 34581 ft 542 kts 112°
2026-02-17 11:43 40.46477 17.36607 34582 ft 542 kts 116°
2026-02-17 11:44 40.42451 17.44979 34566 ft 542 kts 127°
2026-02-17 11:44 40.37478 17.52394 34565 ft 541 kts 134°
2026-02-17 11:45 40.32277 17.59521 34554 ft 541 kts 134°
2026-02-17 11:45 40.27086 17.66670 34539 ft 541 kts 134°
2026-02-17 11:46 40.21916 17.73853 34540 ft 542 kts 134°
2026-02-17 11:46 40.16749 17.81042 34506 ft 543 kts 134°
2026-02-17 11:47 40.08974 17.91816 34540 ft 543 kts 134°
2026-02-17 11:47 40.03781 17.98985 34536 ft 543 kts 134°
2026-02-17 11:48 39.98703 18.05979 34527 ft 544 kts 134°
2026-02-17 11:48 39.93490 18.13142 34521 ft 545 kts 134°
2026-02-17 11:49 39.88266 18.20304 34495 ft 545 kts 135°
2026-02-17 11:49 39.83070 18.27411 34502 ft 545 kts 135°
2026-02-17 11:50 39.77828 18.34564 34500 ft 546 kts 135°
2026-02-17 11:51 39.69961 18.45267 34515 ft 545 kts 135°
2026-02-17 11:51 39.64725 18.52370 34497 ft 543 kts 135°
2026-02-17 11:52 39.59509 18.59429 34497 ft 541 kts 135°
2026-02-17 11:52 39.54311 18.66448 34510 ft 540 kts 135°
2026-02-17 11:53 39.49135 18.73420 34508 ft 540 kts 135°
2026-02-17 11:53 39.43920 18.80431 34526 ft 540 kts 136°
2026-02-17 11:54 39.38696 18.87437 34515 ft 541 kts 136°
2026-02-17 11:54 39.33465 18.94438 34491 ft 541 kts 136°
2026-02-17 11:55 39.26490 19.05638 34513 ft 545 kts 122°
2026-02-17 11:55 39.22609 19.14032 34518 ft 545 kts 122°
2026-02-17 11:56 39.18746 19.22380 34516 ft 545 kts 122°
2026-02-17 11:56 39.14793 19.30787 34505 ft 544 kts 122°
2026-02-17 11:57 39.10871 19.39052 34506 ft 544 kts 122°
2026-02-17 11:57 39.06916 19.47359 34515 ft 543 kts 123°
2026-02-17 11:58 39.02969 19.55638 34509 ft 542 kts 123°
2026-02-17 11:59 38.97058 19.67999 34504 ft 541 kts 123°
2026-02-17 11:59 38.93126 19.76197 34508 ft 541 kts 123°
2026-02-17 12:00 38.89175 19.84413 34508 ft 540 kts 123°
2026-02-17 12:00 38.85219 19.92618 34503 ft 540 kts 123°
2026-02-17 12:01 38.81357 20.00609 34499 ft 539 kts 123°
2026-02-17 12:01 38.77403 20.08770 34495 ft 539 kts 123°
2026-02-17 12:02 38.73446 20.16917 34500 ft 538 kts 124°
2026-02-17 12:02 38.69491 20.25034 34489 ft 536 kts 124°
2026-02-17 12:03 38.63590 20.37112 34485 ft 535 kts 124°
2026-02-17 12:03 38.59637 20.45179 34491 ft 536 kts 124°
2026-02-17 12:04 38.55669 20.53255 34482 ft 537 kts 124°
2026-02-17 12:04 38.51690 20.61333 34486 ft 537 kts 124°
2026-02-17 12:05 38.47707 20.69401 34488 ft 537 kts 124°
2026-02-17 12:05 38.43716 20.77464 34479 ft 537 kts 124°
2026-02-17 12:06 38.39724 20.85514 34476 ft 537 kts 125°
2026-02-17 12:07 38.33352 20.97120 34482 ft 533 kts 133°
2026-02-17 12:07 38.28635 21.04119 34480 ft 533 kts 134°
2026-02-17 12:08 38.23784 21.11282 34493 ft 535 kts 134°
2026-02-17 12:08 38.18944 21.18496 34514 ft 537 kts 134°
2026-02-17 12:09 38.14109 21.25731 34509 ft 537 kts 134°
2026-02-17 12:09 38.09260 21.32976 34491 ft 537 kts 134°
2026-02-17 12:10 38.04422 21.40181 34511 ft 536 kts 134°
2026-02-17 12:10 37.99595 21.47348 34501 ft 535 kts 134°
2026-02-17 12:11 37.92319 21.58122 34530 ft 536 kts 134°
2026-02-17 12:11 37.87457 21.65301 34532 ft 537 kts 135°
2026-02-17 12:12 37.82582 21.72487 34534 ft 538 kts 135°
2026-02-17 12:12 37.77726 21.79626 34519 ft 538 kts 135°
2026-02-17 12:13 37.72840 21.86795 34533 ft 539 kts 135°
2026-02-17 12:13 37.67945 21.93962 34542 ft 538 kts 135°
2026-02-17 12:14 37.63143 22.00976 34551 ft 540 kts 135°
2026-02-17 12:15 37.55761 22.11728 34554 ft 541 kts 135°
2026-02-17 12:15 37.50831 22.18892 34544 ft 541 kts 135°
2026-02-17 12:16 37.45894 22.26052 34541 ft 542 kts 135°
2026-02-17 12:16 37.40967 22.33216 34514 ft 542 kts 133°
2026-02-17 12:17 37.36767 22.41112 34556 ft 544 kts 124°
2026-02-17 12:17 37.32869 22.49295 34508 ft 546 kts 125°
2026-02-17 12:18 37.28962 22.57382 34515 ft 545 kts 126°
2026-02-17 12:18 37.24990 22.65478 34515 ft 544 kts 126°
2026-02-17 12:19 37.19004 22.77595 34513 ft 544 kts 126°
2026-02-17 12:19 37.15023 22.85643 34503 ft 542 kts 126°
2026-02-17 12:20 37.11046 22.93666 34504 ft 541 kts 126°
2026-02-17 12:20 37.07168 23.01477 34513 ft 539 kts 126°
2026-02-17 12:21 37.03211 23.09424 34518 ft 537 kts 126°
2026-02-17 12:21 36.99265 23.17327 34503 ft 537 kts 127°
2026-02-17 12:22 36.95961 23.23927 34519 ft 540 kts 127°
2026-02-17 12:23 36.89292 23.37213 34540 ft 545 kts 127°
2026-02-17 12:23 36.85250 23.45246 34509 ft 547 kts 127°
2026-02-17 12:24 36.81882 23.51924 34535 ft 547 kts 127°
2026-02-17 12:24 36.77826 23.59949 34545 ft 547 kts 127°
2026-02-17 12:25 36.73762 23.67969 34546 ft 546 kts 127°
2026-02-17 12:25 36.69701 23.75965 34535 ft 545 kts 127°
2026-02-17 12:26 36.65651 23.83921 34543 ft 543 kts 128°
2026-02-17 12:26 36.61601 23.91854 34527 ft 544 kts 128°
2026-02-17 12:27 36.55556 24.03657 34583 ft 549 kts 128°
2026-02-17 12:27 36.51433 24.11686 34572 ft 552 kts 128°
2026-02-17 12:28 36.47300 24.19723 34587 ft 551 kts 128°
2026-02-17 12:28 36.43167 24.27741 34591 ft 549 kts 128°
2026-02-17 12:29 36.39049 24.35707 34596 ft 547 kts 128°
2026-02-17 12:29 36.34949 24.43594 34598 ft 549 kts 128°
2026-02-17 12:30 36.30804 24.51557 34606 ft 548 kts 128°
2026-02-17 12:31 36.24633 24.63443 34575 ft 545 kts 128°
2026-02-17 12:31 36.20508 24.71340 34635 ft 547 kts 128°
2026-02-17 12:32 36.16354 24.79265 34642 ft 550 kts 128°
2026-02-17 12:32 36.12174 24.87225 34647 ft 553 kts 128°
2026-02-17 12:33 36.07975 24.95206 34646 ft 554 kts 128°
2026-02-17 12:33 36.03860 25.03012 34621 ft 555 kts 128°
2026-02-17 12:34 35.99663 25.10956 34648 ft 553 kts 128°
2026-02-17 12:34 35.95456 25.18898 34652 ft 552 kts 129°
2026-02-17 12:35 35.89156 25.30756 34652 ft 550 kts 129°
2026-02-17 12:35 35.84957 25.38637 34607 ft 549 kts 129°
2026-02-17 12:36 35.80781 25.46454 34660 ft 550 kts 129°
2026-02-17 12:36 35.76552 25.54351 34666 ft 553 kts 129°
2026-02-17 12:37 35.72312 25.62253 34668 ft 555 kts 129°
2026-02-17 12:37 35.68052 25.70179 34659 ft 554 kts 129°
2026-02-17 12:38 35.63796 25.78080 34669 ft 553 kts 129°
2026-02-17 12:39 35.57415 25.89887 34674 ft 552 kts 129°
2026-02-17 12:39 35.53170 25.97720 34668 ft 550 kts 129°
2026-02-17 12:40 35.49016 26.05367 34682 ft 548 kts 129°
2026-02-17 12:40 35.44785 26.13138 34685 ft 547 kts 129°
2026-02-17 12:41 35.40585 26.20836 34691 ft 547 kts 129°
2026-02-17 12:41 35.36354 26.28572 34693 ft 546 kts 129°
2026-02-17 12:42 35.32122 26.36296 34706 ft 545 kts 129°
2026-02-17 12:42 35.27891 26.43998 34718 ft 545 kts 129°
2026-02-17 12:43 35.21527 26.55552 34736 ft 546 kts 129°
2026-02-17 12:43 35.17285 26.63234 34746 ft 544 kts 129°
2026-02-17 12:44 35.13050 26.70886 34749 ft 543 kts 129°
2026-02-17 12:44 35.08815 26.78522 34745 ft 542 kts 129°
2026-02-17 12:45 35.04600 26.86104 34751 ft 541 kts 129°
2026-02-17 12:45 35.00378 26.93683 34763 ft 539 kts 129°
2026-02-17 12:46 34.96262 27.01058 34767 ft 538 kts 129°
2026-02-17 12:47 34.89962 27.12312 34791 ft 537 kts 129°
2026-02-17 12:47 34.85749 27.19819 34779 ft 536 kts 129°
2026-02-17 12:48 34.81543 27.27299 34781 ft 534 kts 129°
2026-02-17 12:48 34.77343 27.34753 34784 ft 533 kts 130°
2026-02-17 12:49 34.73145 27.42186 34815 ft 533 kts 130°
2026-02-17 12:49 34.68946 27.49605 34798 ft 532 kts 130°
2026-02-17 12:50 34.64759 27.56991 34795 ft 529 kts 130°
2026-02-17 12:50 34.60606 27.64301 34811 ft 528 kts 130°
2026-02-17 12:51 34.54397 27.75349 34827 ft 530 kts 126°
2026-02-17 12:51 34.51083 27.83416 34834 ft 537 kts 117°
2026-02-17 12:52 34.48230 27.91808 34832 ft 538 kts 116°
2026-02-17 12:52 34.45391 28.00119 34830 ft 538 kts 117°
2026-02-17 12:53 34.42517 28.08379 34816 ft 538 kts 117°
2026-02-17 12:53 34.39609 28.16656 34832 ft 536 kts 117°
2026-02-17 12:54 34.36683 28.24955 34836 ft 535 kts 117°
2026-02-17 12:55 34.32298 28.37370 34825 ft 534 kts 118°
2026-02-17 12:55 34.29377 28.45621 34849 ft 533 kts 118°
2026-02-17 12:56 34.26449 28.53867 34852 ft 533 kts 118°
2026-02-17 12:56 34.23517 28.62100 34859 ft 533 kts 118°
2026-02-17 12:57 34.20576 28.70341 34850 ft 533 kts 119°
2026-02-17 12:57 34.17661 28.78490 34863 ft 531 kts 119°
2026-02-17 12:58 34.14727 28.86668 34867 ft 530 kts 119°
2026-02-17 12:58 34.11790 28.94833 34868 ft 530 kts 119°
2026-02-17 12:59 34.07455 29.06849 34872 ft 528 kts 120°
2026-02-17 12:59 34.04522 29.14950 34879 ft 527 kts 120°
2026-02-17 13:00 34.01587 29.23038 34881 ft 526 kts 120°
2026-02-17 13:00 33.98658 29.31096 34879 ft 524 kts 120°
2026-02-17 13:01 33.95725 29.39137 34885 ft 524 kts 120°
2026-02-17 13:01 33.92789 29.47167 34889 ft 523 kts 120°
2026-02-17 13:02 33.89851 29.55184 34869 ft 524 kts 121°
2026-02-17 13:03 33.85430 29.67213 34897 ft 524 kts 121°
2026-02-17 13:03 33.82467 29.75247 34897 ft 525 kts 121°
2026-02-17 13:04 33.79496 29.83288 34889 ft 526 kts 121°
2026-02-17 13:04 33.76538 29.91275 34911 ft 527 kts 121°
2026-02-17 13:05 33.73544 29.99342 34912 ft 528 kts 121°
2026-02-17 13:05 33.70705 30.07285 34914 ft 531 kts 119°
2026-02-17 13:06 33.67898 30.15490 34900 ft 531 kts 119°
2026-02-17 13:06 33.65082 30.23688 34918 ft 532 kts 119°
2026-02-17 13:07 33.61264 30.34660 34925 ft 533 kts 120°
2026-02-17 13:07 33.58413 30.42807 34906 ft 533 kts 120°
2026-02-17 13:08 33.55535 30.51017 34921 ft 533 kts 120°
2026-02-17 13:08 33.52656 30.59210 34930 ft 533 kts 120°
2026-02-17 13:09 33.49771 30.67403 34935 ft 533 kts 120°
2026-02-17 13:09 33.46880 30.75593 34936 ft 533 kts 120°
2026-02-17 13:10 33.43986 30.83770 34937 ft 533 kts 120°
2026-02-17 13:11 33.39266 30.95723 34928 ft 522 kts 129°
2026-02-17 13:11 33.35168 31.02443 34945 ft 511 kts 137°
2026-02-17 13:12 33.30678 31.09036 34948 ft 512 kts 137°
2026-02-17 13:12 33.26195 31.15657 34918 ft 513 kts 137°
2026-02-17 13:13 33.21724 31.22308 34943 ft 514 kts 137°
2026-02-17 13:13 33.17249 31.28972 34953 ft 515 kts 137°
2026-02-17 13:14 33.12758 31.35647 34956 ft 516 kts 137°
2026-02-17 13:14 33.08251 31.42328 34959 ft 517 kts 137°
2026-02-17 13:15 33.01504 31.52308 34936 ft 518 kts 137°
2026-02-17 13:15 32.96988 31.58974 34953 ft 517 kts 137°
2026-02-17 13:16 32.92471 31.65629 34962 ft 516 kts 137°
2026-02-17 13:16 32.87962 31.72258 34928 ft 515 kts 137°
2026-02-17 13:17 32.83448 31.78883 34959 ft 515 kts 137°
2026-02-17 13:17 32.78935 31.85494 34972 ft 514 kts 137°
2026-02-17 13:18 32.74424 31.92089 34968 ft 514 kts 137°
2026-02-17 13:19 32.67785 32.01776 34977 ft 514 kts 137°
2026-02-17 13:19 32.63063 32.08091 34950 ft 505 kts 144°
2026-02-17 13:20 32.57678 32.13233 34983 ft 492 kts 153°
2026-02-17 13:20 32.52074 32.17907 34933 ft 492 kts 153°
2026-02-17 13:21 32.46493 32.22593 34974 ft 492 kts 153°
2026-02-17 13:21 32.40931 32.27299 34980 ft 492 kts 153°
2026-02-17 13:22 32.35366 32.32012 34985 ft 492 kts 153°
2026-02-17 13:22 32.29791 32.36725 34975 ft 491 kts 153°
2026-02-17 13:23 32.21461 32.43745 34949 ft 489 kts 153°
2026-02-17 13:23 32.17044 32.50338 34952 ft 479 kts 162°
2026-02-17 13:24 32.11052 32.53583 34987 ft 474 kts 163°
2026-02-17 13:24 32.05289 32.57377 34988 ft 481 kts 156°
2026-02-17 13:25 31.99749 32.61826 35002 ft 485 kts 153°
2026-02-17 13:25 31.94277 32.66486 35000 ft 484 kts 154°
2026-02-17 13:26 31.88821 32.71109 34979 ft 482 kts 154°
2026-02-17 13:27 31.80630 32.77951 34999 ft 481 kts 155°
2026-02-17 13:27 31.75170 32.82489 35004 ft 480 kts 155°
2026-02-17 13:28 31.69710 32.87022 35006 ft 481 kts 155°
2026-02-17 13:28 31.64246 32.91555 34996 ft 480 kts 156°
2026-02-17 13:29 31.58801 32.96068 34990 ft 478 kts 156°
2026-02-17 13:29 31.53490 33.00462 35009 ft 476 kts 156°
2026-02-17 13:30 31.48086 33.04924 35009 ft 475 kts 156°
2026-02-17 13:30 31.42689 33.09372 35015 ft 474 kts 156°
2026-02-17 13:31 31.34519 33.15779 35003 ft 463 kts 162°
2026-02-17 13:31 31.28870 33.19333 35004 ft 460 kts 163°
2026-02-17 13:32 31.23219 33.22846 35023 ft 460 kts 163°
2026-02-17 13:32 31.17583 33.26373 35022 ft 460 kts 163°
2026-02-17 13:33 31.11946 33.29914 35028 ft 460 kts 163°
2026-02-17 13:33 31.06311 33.33456 35029 ft 460 kts 163°
2026-02-17 13:34 31.00671 33.36995 34991 ft 460 kts 163°
2026-02-17 13:35 30.92263 33.42261 35026 ft 459 kts 163°
2026-02-17 13:35 30.86629 33.45784 35032 ft 459 kts 163°
2026-02-17 13:36 30.80995 33.49301 35039 ft 459 kts 163°
2026-02-17 13:36 30.75361 33.52813 35031 ft 460 kts 163°
2026-02-17 13:37 30.69722 33.56329 35037 ft 458 kts 163°
2026-02-17 13:37 30.64127 33.59805 35033 ft 459 kts 164°
2026-02-17 13:38 30.58496 33.63301 35033 ft 459 kts 164°
2026-02-17 13:38 30.52861 33.66797 35031 ft 459 kts 164°
2026-02-17 13:39 30.44426 33.72022 34995 ft 457 kts 164°
2026-02-17 13:39 30.38856 33.75465 35019 ft 455 kts 164°
2026-02-17 13:40 30.33265 33.78916 35027 ft 455 kts 164°
2026-02-17 13:40 30.27681 33.82358 35024 ft 455 kts 164°
2026-02-17 13:41 30.22094 33.85797 35026 ft 455 kts 164°
2026-02-17 13:41 30.16510 33.89230 35024 ft 455 kts 164°
2026-02-17 13:42 30.10927 33.92660 35009 ft 454 kts 164°
2026-02-17 13:43 30.02561 33.97790 35006 ft 453 kts 165°
2026-02-17 13:43 29.97127 34.01116 35009 ft 453 kts 165°
2026-02-17 13:44 29.91558 34.04520 35013 ft 453 kts 165°
2026-02-17 13:44 29.85998 34.07914 34964 ft 452 kts 165°
2026-02-17 13:45 29.80434 34.11307 35002 ft 452 kts 165°
2026-02-17 13:45 29.74860 34.14699 35010 ft 453 kts 165°
2026-02-17 13:46 29.69308 34.18076 35007 ft 454 kts 165°
2026-02-17 13:46 29.64027 34.22285 34975 ft 492 kts 143°
2026-02-17 13:47 29.60727 34.29589 34988 ft 544 kts 114°
2026-02-17 13:47 29.60311 34.33996 35010 ft 564 kts 99°
2026-02-17 13:47 29.60633 34.43098 34996 ft 571 kts 96°
2026-02-17 13:48 29.60756 34.52196 34972 ft 564 kts 101°
2026-02-17 13:48 29.60216 34.56555 34989 ft 537 kts 118°
2026-02-17 13:48 29.58839 34.60433 35005 ft 514 kts 131°
2026-02-17 13:49 29.56932 34.63829 34987 ft 500 kts 141°
2026-02-17 13:49 29.54584 34.66652 34968 ft 476 kts 155°
2026-02-17 13:49 29.49344 34.71314 35000 ft 482 kts 154°
2026-02-17 13:50 29.47663 34.73010 34960 ft 494 kts 147°
2026-02-17 13:50 29.45483 34.76194 34981 ft 521 kts 134°
2026-02-17 13:50 29.43838 34.79974 34961 ft 539 kts 121°
2026-02-17 13:51 29.42459 34.88653 34975 ft 560 kts 105°
2026-02-17 13:51 29.42222 34.94613 34974 ft 571 kts 97°
2026-02-17 13:51 29.42415 34.99184 34979 ft 577 kts 93°
2026-02-17 13:52 29.43425 35.06652 34974 ft 586 kts 82°
2026-02-17 13:52 29.45612 35.15679 34980 ft 587 kts 79°
2026-02-17 13:53 29.47877 35.24645 34994 ft 584 kts 80°
2026-02-17 13:53 29.50006 35.33629 35028 ft 583 kts 81°
2026-02-17 13:54 29.52069 35.42580 34996 ft 583 kts 81°
2026-02-17 13:54 29.54175 35.51587 34964 ft 584 kts 80°
2026-02-17 13:55 29.57361 35.65079 35002 ft 583 kts 81°
2026-02-17 13:55 29.59473 35.74106 35002 ft 584 kts 81°
2026-02-17 13:56 29.61499 35.83127 34996 ft 581 kts 84°
2026-02-17 13:56 29.63024 35.92226 34999 ft 578 kts 86°
2026-02-17 13:57 29.64421 36.01115 34996 ft 578 kts 86°
2026-02-17 13:57 29.65883 36.10219 34989 ft 579 kts 86°
2026-02-17 13:58 29.67367 36.19318 34986 ft 579 kts 86°
2026-02-17 13:59 29.69563 36.32902 34986 ft 577 kts 86°
2026-02-17 13:59 29.71028 36.41978 34982 ft 577 kts 86°
2026-02-17 14:00 29.72508 36.51056 34962 ft 577 kts 86°
2026-02-17 14:00 29.73970 36.60126 34990 ft 575 kts 87°
2026-02-17 14:01 29.74463 36.69176 34980 ft 560 kts 101°
2026-02-17 14:01 29.73543 36.77992 34990 ft 549 kts 112°
2026-02-17 14:02 29.71784 36.86537 35000 ft 549 kts 114°
2026-02-17 14:02 29.70013 36.95034 34980 ft 549 kts 113°
2026-02-17 14:03 29.67460 37.07681 34974 ft 549 kts 112°
2026-02-17 14:03 29.65749 37.16220 34981 ft 548 kts 112°
2026-02-17 14:04 29.64031 37.24744 34965 ft 546 kts 112°
2026-02-17 14:04 29.62305 37.33255 34980 ft 546 kts 112°
2026-02-17 14:05 29.60571 37.41766 34997 ft 547 kts 112°
2026-02-17 14:05 29.58826 37.50305 34967 ft 549 kts 112°
2026-02-17 14:06 29.57077 37.58848 34986 ft 550 kts 112°
2026-02-17 14:07 29.54435 37.71688 34957 ft 551 kts 112°
2026-02-17 14:07 29.52677 37.80195 34984 ft 551 kts 111°
2026-02-17 14:08 29.50899 37.88761 34995 ft 551 kts 112°
2026-02-17 14:08 29.49114 37.97334 34944 ft 552 kts 111°
2026-02-17 14:09 29.47465 38.05738 35000 ft 553 kts 109°
2026-02-17 14:09 29.45977 38.14406 34999 ft 554 kts 108°
2026-02-17 14:10 29.44490 38.23066 34984 ft 553 kts 108°
2026-02-17 14:10 29.42960 38.31694 34994 ft 551 kts 108°
2026-02-17 14:11 29.40632 38.44601 35005 ft 551 kts 109°
2026-02-17 14:11 29.39077 38.53199 35033 ft 550 kts 109°
2026-02-17 14:12 29.37517 38.61799 35013 ft 551 kts 109°
2026-02-17 14:12 29.35953 38.70392 34991 ft 550 kts 108°
2026-02-17 14:13 29.34386 38.78968 35005 ft 550 kts 109°
2026-02-17 14:13 29.32809 38.87552 35004 ft 550 kts 109°
2026-02-17 14:14 29.31170 38.96098 34999 ft 548 kts 110°
2026-02-17 14:15 29.28512 39.08611 35014 ft 547 kts 110°
2026-02-17 14:15 29.26707 39.17085 34999 ft 547 kts 110°
2026-02-17 14:16 29.24925 39.25540 35006 ft 546 kts 110°
2026-02-17 14:16 29.23155 39.33939 35024 ft 545 kts 110°
2026-02-17 14:17 29.21355 39.42433 35007 ft 545 kts 110°
2026-02-17 14:17 29.19575 39.50796 35021 ft 544 kts 110°
2026-02-17 14:18 29.17766 39.59212 35013 ft 544 kts 110°
2026-02-17 14:18 29.15966 39.67615 35025 ft 544 kts 110°
2026-02-17 14:19 29.13250 39.80273 35031 ft 544 kts 110°
2026-02-17 14:19 29.11440 39.88667 35029 ft 544 kts 110°
2026-02-17 14:20 29.09893 39.97165 35032 ft 547 kts 106°
2026-02-17 14:20 29.08616 40.05469 35026 ft 547 kts 105°
2026-02-17 14:21 29.07299 40.14017 35037 ft 545 kts 105°
2026-02-17 14:21 29.05946 40.22544 35042 ft 544 kts 105°
2026-02-17 14:22 29.03892 40.35293 35045 ft 543 kts 105°
2026-02-17 14:23 29.01839 40.47988 35030 ft 541 kts 105°
2026-02-17 14:23 29.00466 40.56441 35050 ft 540 kts 105°
2026-02-17 14:24 28.99093 40.64865 35052 ft 540 kts 105°
2026-02-17 14:24 28.97714 40.73283 35059 ft 539 kts 105°
2026-02-17 14:25 28.96329 40.81714 35053 ft 540 kts 105°
2026-02-17 14:25 28.94943 40.90134 35057 ft 540 kts 105°
2026-02-17 14:26 28.93550 40.98560 35062 ft 540 kts 105°
2026-02-17 14:27 28.91483 41.10998 35053 ft 540 kts 105°
2026-02-17 14:27 28.90076 41.19418 35041 ft 540 kts 105°
2026-02-17 14:28 28.88673 41.27789 35050 ft 539 kts 105°
2026-02-17 14:28 28.87253 41.36226 35040 ft 539 kts 105°
2026-02-17 14:29 28.85837 41.44608 35039 ft 538 kts 105°
2026-02-17 14:29 28.84416 41.52992 35045 ft 537 kts 105°
2026-02-17 14:30 28.82994 41.61359 35031 ft 537 kts 105°
2026-02-17 14:31 28.80384 41.76644 35043 ft 536 kts 105°
2026-02-17 14:31 28.78954 41.84978 35050 ft 537 kts 105°
2026-02-17 14:32 28.77482 41.93492 35045 ft 550 kts 105°
2026-02-17 14:32 28.76031 42.01875 35030 ft 552 kts 104°
2026-02-17 14:33 28.74548 42.10435 35032 ft 549 kts 104°
2026-02-17 14:33 28.72320 42.23213 35039 ft 546 kts 104°
2026-02-17 14:34 28.70834 42.31683 35033 ft 545 kts 105°
2026-02-17 14:35 28.68598 42.44362 35022 ft 543 kts 104°
2026-02-17 14:35 28.67107 42.52788 35030 ft 543 kts 104°
2026-02-17 14:36 28.65622 42.61150 35030 ft 543 kts 105°
2026-02-17 14:36 28.63519 42.69396 35033 ft 536 kts 115°
2026-02-17 14:37 28.60319 42.77007 35036 ft 531 kts 122°
2026-02-17 14:37 28.56783 42.84384 35032 ft 532 kts 122°
2026-02-17 14:38 28.53276 42.91752 35035 ft 532 kts 122°
2026-02-17 14:38 28.49779 42.99182 35034 ft 533 kts 122°
2026-02-17 14:39 28.44628 43.10150 35024 ft 532 kts 122°
2026-02-17 14:39 28.41136 43.17559 35031 ft 532 kts 122°
2026-02-17 14:40 28.37641 43.24954 35028 ft 531 kts 122°
2026-02-17 14:41 28.32395 43.36032 35032 ft 531 kts 122°
2026-02-17 14:41 28.28891 43.43416 35026 ft 531 kts 122°
2026-02-17 14:42 28.25389 43.50783 35029 ft 530 kts 122°
2026-02-17 14:42 28.21887 43.58140 35031 ft 530 kts 122°
2026-02-17 14:43 28.16598 43.69165 35028 ft 530 kts 122°
2026-02-17 14:43 28.13052 43.76473 35039 ft 529 kts 122°
2026-02-17 14:44 28.09505 43.83780 35028 ft 529 kts 122°
2026-02-17 14:44 28.05958 43.91085 35031 ft 528 kts 121°
2026-02-17 14:45 28.02414 43.98375 35039 ft 528 kts 121°
2026-02-17 14:45 27.98957 44.05473 35037 ft 527 kts 121°
2026-02-17 14:46 27.95411 44.12743 35049 ft 527 kts 121°
2026-02-17 14:47 27.90136 44.23662 35050 ft 527 kts 121°
2026-02-17 14:47 27.86644 44.30946 35062 ft 527 kts 121°
2026-02-17 14:48 27.83145 44.38218 35061 ft 527 kts 121°
2026-02-17 14:48 27.79641 44.45477 35057 ft 526 kts 120°
2026-02-17 14:49 27.76123 44.52750 35070 ft 530 kts 120°
2026-02-17 14:49 27.72568 44.60090 35069 ft 535 kts 120°
2026-02-17 14:50 27.68996 44.67456 35070 ft 535 kts 120°
2026-02-17 14:50 27.65619 44.74934 35074 ft 536 kts 114°
2026-02-17 14:51 27.63311 44.82921 35066 ft 537 kts 103°
2026-02-17 14:51 27.62566 44.87035 35079 ft 536 kts 102°
2026-02-17 14:51 27.61152 44.95288 35073 ft 535 kts 102°
2026-02-17 14:52 27.59720 45.03350 35073 ft 535 kts 103°
2026-02-17 14:52 27.58213 45.11565 35076 ft 534 kts 103°
2026-02-17 14:53 27.56703 45.19760 35074 ft 534 kts 103°
2026-02-17 14:53 27.55187 45.27948 35077 ft 534 kts 103°
2026-02-17 14:54 27.53654 45.36084 35071 ft 533 kts 103°
2026-02-17 14:55 27.51327 45.48387 35082 ft 533 kts 103°
2026-02-17 14:55 27.49808 45.56411 35071 ft 516 kts 103°
2026-02-17 14:56 27.48308 45.64302 35087 ft 514 kts 103°
2026-02-17 14:56 27.46806 45.72179 35080 ft 515 kts 103°
2026-02-17 14:57 27.45300 45.80052 35088 ft 514 kts 103°
2026-02-17 14:57 27.43789 45.87924 35091 ft 514 kts 103°
2026-02-17 14:58 27.42283 45.95749 35097 ft 514 kts 103°
2026-02-17 14:58 27.40793 46.03461 35092 ft 514 kts 103°
2026-02-17 14:59 27.38508 46.15252 35091 ft 513 kts 103°
2026-02-17 14:59 27.36981 46.23098 35092 ft 513 kts 103°
2026-02-17 15:00 27.35453 46.30930 35095 ft 513 kts 103°
2026-02-17 15:00 27.34021 46.38795 35096 ft 513 kts 102°
2026-02-17 15:01 27.32680 46.46673 35094 ft 513 kts 101°
2026-02-17 15:01 27.31329 46.54540 35098 ft 512 kts 102°
2026-02-17 15:02 27.29956 46.62396 35094 ft 512 kts 102°
2026-02-17 15:03 27.27876 46.74188 35098 ft 512 kts 102°
2026-02-17 15:03 27.26486 46.82036 35097 ft 512 kts 102°
2026-02-17 15:04 27.25092 46.89889 35097 ft 512 kts 102°
2026-02-17 15:04 27.23694 46.97736 35096 ft 512 kts 102°
2026-02-17 15:05 27.22322 47.05415 35096 ft 512 kts 102°
2026-02-17 15:05 27.20916 47.13256 35098 ft 512 kts 102°
2026-02-17 15:06 27.19745 47.19766 35096 ft 512 kts 102°
2026-02-17 15:06 27.18331 47.27605 35095 ft 511 kts 102°
2026-02-17 15:07 27.16202 47.39357 35094 ft 511 kts 102°
2026-02-17 15:07 27.14779 47.47182 35092 ft 511 kts 102°
2026-02-17 15:08 27.13352 47.54996 35099 ft 511 kts 102°
2026-02-17 15:08 27.11899 47.62813 35094 ft 511 kts 102°
2026-02-17 15:09 27.10441 47.70609 35095 ft 510 kts 102°
2026-02-17 15:09 27.08991 47.78353 35092 ft 510 kts 102°
2026-02-17 15:10 27.07529 47.86147 35093 ft 510 kts 102°
2026-02-17 15:11 27.05324 47.97826 35089 ft 510 kts 103°
2026-02-17 15:11 27.03695 48.05373 35089 ft 509 kts 104°
2026-02-17 15:12 27.01938 48.13067 35087 ft 509 kts 104°
2026-02-17 15:12 27.00199 48.20774 35088 ft 509 kts 104°
2026-02-17 15:13 26.98486 48.28461 35085 ft 509 kts 104°
2026-02-17 15:13 26.96768 48.36170 35084 ft 509 kts 104°
2026-02-17 15:14 26.95041 48.43894 35081 ft 509 kts 104°
2026-02-17 15:14 26.93313 48.51594 35079 ft 509 kts 104°
2026-02-17 15:15 26.90723 48.63093 35076 ft 509 kts 104°
2026-02-17 15:15 26.88984 48.70794 35076 ft 509 kts 104°
2026-02-17 15:16 26.87300 48.78502 35070 ft 509 kts 102°
2026-02-17 15:16 26.85910 48.86280 35072 ft 509 kts 101°
2026-02-17 15:17 26.84560 48.94070 35071 ft 509 kts 101°
2026-02-17 15:17 26.83189 49.01675 35070 ft 509 kts 101°
2026-02-17 15:18 26.81760 49.09438 35073 ft 509 kts 102°
2026-02-17 15:19 26.79608 49.21091 35071 ft 509 kts 102°
2026-02-17 15:19 26.78173 49.28849 35070 ft 509 kts 102°
2026-02-17 15:20 26.76741 49.36561 35066 ft 509 kts 102°
2026-02-17 15:20 26.74780 49.44156 35073 ft 509 kts 109°
2026-02-17 15:21 26.72466 49.51650 35069 ft 509 kts 109°
2026-02-17 15:21 26.70192 49.59164 35065 ft 509 kts 108°
2026-02-17 15:22 26.67946 49.66673 35064 ft 509 kts 108°
2026-02-17 15:22 26.65682 49.74170 35056 ft 509 kts 109°
2026-02-17 15:23 26.62275 49.85419 35053 ft 509 kts 109°
2026-02-17 15:23 26.60039 49.92940 35055 ft 508 kts 108°
2026-02-17 15:24 26.58958 49.96602 35039 ft 497 kts 108°
2026-02-17 15:24 26.57881 50.00135 34941 ft 486 kts 109°
2026-02-17 15:24 26.56800 50.03607 34620 ft 482 kts 109°
2026-02-17 15:24 26.55713 50.07146 34121 ft 482 kts 109°
2026-02-17 15:25 26.54637 50.10699 33459 ft 484 kts 109°
2026-02-17 15:25 26.53560 50.14277 32813 ft 486 kts 109°
2026-02-17 15:25 26.52480 50.17863 32196 ft 488 kts 109°
2026-02-17 15:25 26.51388 50.21478 31663 ft 495 kts 109°
2026-02-17 15:26 26.50283 50.25124 31476 ft 496 kts 109°
2026-02-17 15:26 26.49171 50.28789 31450 ft 504 kts 109°
2026-02-17 15:26 26.48031 50.32539 31464 ft 515 kts 109°
2026-02-17 15:27 26.45719 50.40192 31327 ft 514 kts 108°
2026-02-17 15:27 26.44653 50.43965 30894 ft 505 kts 107°
2026-02-17 15:27 26.43636 50.47678 30507 ft 496 kts 107°
2026-02-17 15:27 26.42635 50.51340 30163 ft 490 kts 107°
2026-02-17 15:28 26.41634 50.54954 29619 ft 486 kts 107°
2026-02-17 15:28 26.40628 50.58541 29091 ft 480 kts 107°
2026-02-17 15:28 26.39632 50.62074 28566 ft 475 kts 107°
2026-02-17 15:28 26.38643 50.65571 28077 ft 470 kts 107°
2026-02-17 15:29 26.37662 50.69037 27582 ft 466 kts 107°
2026-02-17 15:29 26.36702 50.72427 27098 ft 462 kts 107°
2026-02-17 15:29 26.35735 50.75827 26622 ft 458 kts 107°
2026-02-17 15:29 26.34761 50.79199 26153 ft 454 kts 107°
2026-02-17 15:30 26.33793 50.82539 25689 ft 451 kts 107°
2026-02-17 15:30 26.32831 50.85856 25274 ft 449 kts 107°
2026-02-17 15:30 26.31871 50.89174 25123 ft 451 kts 107°
2026-02-17 15:31 26.29755 50.95749 25068 ft 451 kts 114°
2026-02-17 15:31 26.28307 50.98836 25065 ft 445 kts 118°
2026-02-17 15:31 26.26866 51.01662 25057 ft 433 kts 119°
2026-02-17 15:31 26.25388 51.04548 25051 ft 426 kts 118°
2026-02-17 15:32 26.23936 51.07415 25055 ft 425 kts 118°
2026-02-17 15:32 26.22486 51.10293 25064 ft 426 kts 118°
2026-02-17 15:32 26.21038 51.13169 25067 ft 426 kts 118°
2026-02-17 15:32 26.19586 51.16056 25067 ft 427 kts 118°
2026-02-17 15:33 26.18132 51.18943 25064 ft 427 kts 118°
2026-02-17 15:33 26.16681 51.21824 25067 ft 428 kts 118°
2026-02-17 15:33 26.15233 51.24695 25057 ft 420 kts 118°
2026-02-17 15:33 26.13818 51.27498 24948 ft 411 kts 118°
2026-02-17 15:34 26.12426 51.30254 24695 ft 407 kts 118°
2026-02-17 15:34 26.11056 51.32966 24340 ft 406 kts 118°
2026-02-17 15:34 26.09653 51.35744 23961 ft 407 kts 118°
2026-02-17 15:35 26.06903 51.41177 23254 ft 403 kts 118°
2026-02-17 15:35 26.05530 51.43882 22935 ft 400 kts 118°
2026-02-17 15:35 26.04165 51.46568 22606 ft 397 kts 117°
2026-02-17 15:35 26.02809 51.49237 22286 ft 395 kts 117°
2026-02-17 15:36 26.01466 51.51878 22125 ft 389 kts 117°
2026-02-17 15:36 26.00140 51.54487 22076 ft 388 kts 117°
2026-02-17 15:36 25.98812 51.57099 22078 ft 390 kts 117°
2026-02-17 15:36 25.97468 51.59743 22079 ft 395 kts 117°
2026-02-17 15:37 25.96111 51.62410 22071 ft 396 kts 117°
2026-02-17 15:37 25.94758 51.65065 21788 ft 393 kts 117°
2026-02-17 15:37 25.93417 51.67697 21413 ft 390 kts 117°
2026-02-17 15:37 25.92087 51.70302 21048 ft 386 kts 117°
2026-02-17 15:38 25.90765 51.72891 20663 ft 383 kts 116°
2026-02-17 15:38 25.89482 51.75466 20246 ft 380 kts 115°
2026-02-17 15:38 25.88022 51.77895 19712 ft 381 kts 132°
2026-02-17 15:39 25.83178 51.80319 18771 ft 391 kts 172°
2026-02-17 15:39 25.80469 51.80512 18403 ft 389 kts 177°
2026-02-17 15:39 25.77765 51.80577 17937 ft 388 kts 178°
2026-02-17 15:39 25.75068 51.80615 17507 ft 386 kts 178°
2026-02-17 15:40 25.72388 51.80659 17113 ft 383 kts 178°
2026-02-17 15:40 25.69731 51.80718 16723 ft 380 kts 177°
2026-02-17 15:40 25.67091 51.80789 16326 ft 378 kts 177°
2026-02-17 15:40 25.64466 51.80868 15935 ft 376 kts 177°
2026-02-17 15:41 25.61864 51.80951 15581 ft 373 kts 176°
2026-02-17 15:41 25.59279 51.81035 15268 ft 369 kts 176°
2026-02-17 15:41 25.56746 51.81115 15021 ft 372 kts 176°
2026-02-17 15:41 25.54088 51.81202 14982 ft 375 kts 176°
2026-02-17 15:42 25.51537 51.81281 14753 ft 362 kts 176°
2026-02-17 15:42 25.49059 51.81126 14408 ft 358 kts 193°
2026-02-17 15:42 25.46801 51.80059 14136 ft 349 kts 211°
2026-02-17 15:43 25.42648 51.77364 13861 ft 343 kts 211°
2026-02-17 15:43 25.40588 51.76035 13595 ft 344 kts 211°
2026-02-17 15:43 25.38559 51.74742 13189 ft 336 kts 211°
2026-02-17 15:43 25.36541 51.73467 12815 ft 335 kts 210°
2026-02-17 15:44 25.34503 51.72183 12462 ft 338 kts 210°
2026-02-17 15:44 25.32407 51.71040 12060 ft 335 kts 195°
2026-02-17 15:44 25.30114 51.70803 11693 ft 330 kts 171°
2026-02-17 15:44 25.27927 51.71433 11352 ft 323 kts 155°
2026-02-17 15:45 25.25856 51.72370 11015 ft 321 kts 154°
2026-02-17 15:45 25.23796 51.73308 10659 ft 320 kts 154°
2026-02-17 15:45 25.21738 51.74238 10319 ft 319 kts 155°
2026-02-17 15:45 25.19679 51.75152 9981 ft 319 kts 155°
2026-02-17 15:46 25.17621 51.76059 9611 ft 318 kts 155°
2026-02-17 15:46 25.16234 51.76668 9351 ft 318 kts 155°
2026-02-17 15:46 25.14186 51.77566 9024 ft 315 kts 155°
2026-02-17 15:47 25.10189 51.79318 8977 ft 308 kts 155°
2026-02-17 15:47 25.08195 51.80192 8722 ft 307 kts 155°
2026-02-17 15:47 25.06207 51.81066 8552 ft 311 kts 154°
2026-02-17 15:47 25.04246 51.81995 8471 ft 302 kts 153°
2026-02-17 15:48 25.02363 51.82935 7955 ft 294 kts 152°
2026-02-17 15:48 25.00511 51.83879 7284 ft 293 kts 152°
2026-02-17 15:48 24.98663 51.84801 6620 ft 291 kts 153°
2026-02-17 15:48 24.96821 51.85699 6000 ft 288 kts 154°
2026-02-17 15:49 24.94988 51.86548 5416 ft 283 kts 156°
2026-02-17 15:49 24.93167 51.87343 4803 ft 280 kts 157°
2026-02-17 15:49 24.91378 51.88095 4288 ft 277 kts 157°
2026-02-17 15:49 24.89555 51.88868 4129 ft 277 kts 158°
2026-02-17 15:50 24.87801 51.89604 4020 ft 262 kts 158°
2026-02-17 15:50 24.86143 51.90306 4003 ft 247 kts 159°
2026-02-17 15:50 24.83157 51.89814 4001 ft 213 kts 227°
2026-02-17 15:51 24.82465 51.88444 4055 ft 206 kts 263°
2026-02-17 15:51 24.82626 51.86906 4027 ft 204 kts 299°
2026-02-17 15:51 24.83424 51.85623 4033 ft 205 kts 311°
2026-02-17 15:51 24.84331 51.84421 4019 ft 202 kts 312°
2026-02-17 15:52 24.85224 51.83252 4007 ft 198 kts 312°
2026-02-17 15:52 24.86109 51.82100 4008 ft 196 kts 315°
2026-02-17 15:52 24.87186 51.81210 4024 ft 194 kts 333°
2026-02-17 15:52 24.88368 51.80465 4019 ft 198 kts 332°
2026-02-17 15:53 24.89572 51.79705 4029 ft 200 kts 332°
2026-02-17 15:53 24.90787 51.78940 4023 ft 199 kts 332°
2026-02-17 15:53 24.91980 51.78190 3997 ft 195 kts 332°
2026-02-17 15:53 24.93141 51.77461 3861 ft 195 kts 332°
2026-02-17 15:54 24.94334 51.76715 3729 ft 194 kts 333°
2026-02-17 15:54 24.95511 51.76043 3609 ft 192 kts 336°
2026-02-17 15:54 24.97868 51.74896 3346 ft 183 kts 339°
2026-02-17 15:55 24.99063 51.74355 3024 ft 190 kts 339°
2026-02-17 15:55 25.00286 51.73809 2841 ft 188 kts 339°
2026-02-17 15:55 25.01489 51.73278 2686 ft 185 kts 340°
2026-02-17 15:55 25.02697 51.72746 2609 ft 185 kts 340°
2026-02-17 15:56 25.03881 51.72224 2563 ft 185 kts 340°
2026-02-17 15:56 25.05092 51.71693 2515 ft 185 kts 340°
2026-02-17 15:56 25.06286 51.71168 2517 ft 184 kts 340°
2026-02-17 15:56 25.07459 51.70653 2528 ft 181 kts 340°
2026-02-17 15:57 25.08641 51.70132 2518 ft 188 kts 340°
2026-02-17 15:57 25.09840 51.69603 2501 ft 180 kts 340°
2026-02-17 15:57 25.10963 51.69109 2486 ft 168 kts 340°
2026-02-17 15:57 25.12024 51.68643 2485 ft 162 kts 340°
2026-02-17 15:58 25.13084 51.68178 2497 ft 166 kts 339°
2026-02-17 15:58 25.14150 51.67694 2390 ft 168 kts 339°
2026-02-17 15:58 25.16250 51.66694 1982 ft 158 kts 339°
2026-02-17 15:59 25.17281 51.66221 1932 ft 161 kts 341°
2026-02-17 15:59 25.18254 51.65810 1658 ft 140 kts 342°
2026-02-17 15:59 25.19139 51.65458 1348 ft 135 kts 343°
2026-02-17 15:59 25.20010 51.65118 1096 ft 131 kts 343°
2026-02-17 16:00 25.20880 51.64752 879 ft 142 kts 339°
2026-02-17 16:00 25.21808 51.64304 787 ft 146 kts 339°
2026-02-17 16:00 25.22755 51.63897 632 ft 148 kts 341°
2026-02-17 16:00 25.23731 51.63488 456 ft 151 kts 339°
2026-02-17 16:01 25.24679 51.63062 245 ft 144 kts 340°
2026-02-17 16:01 25.25578 51.62662 82 ft 134 kts 340°
2026-02-17 16:01 25.26413 51.62295 30 ft 122 kts 338°
2026-02-17 16:01 25.26998 51.62040 25 ft 66 kts 338°
2026-02-17 16:02 25.27314 51.61885 30 ft 45 kts 327°
2026-02-17 16:02 25.27470 51.61714 31 ft 13 kts 308°